Location: Zagreb
(45.8000°N, 16.0000°E)
Time: 02:06:47
(UTC+02:00)

Transit 2A Rocket - Pass Details

Date: 26 January 2022
Orbit: 592 x 909 km, 66.7° (Epoch: 26 May)

Event Time Altitude Azimuth Distance (km) Brightness Sun altitude
Rises 20:18:12 0° 256° (WSW) 3,518 9.3 -35.6°
Reaches altitude 10° 20:21:13 10° 270° (W) 2,594 8.5 -36.1°
Maximum altitude 20:26:04 24° 323° (NW) 1,784 7.2 -37.0°
Enters shadow 20:26:59 23° 336° (NNW) 1,817 7.1 -37.1°
Drops below altitude 10° 20:30:53 10° 16° (NNE) 2,573 - -37.8°
Sets 20:33:53 0° 30° (NNE) 3,485 - -38.3°
